Hourly Data Report for July 26, 2021

MIRAMICHI RCS
NEW BRUNSWICK
Current Station Operator: ECCC - MSC

47°00'34.000" N
65°27'54.000" W
33.00 m
8100989
71744
ACQ

Download Data

Hourly Data (July 2021)
Hourly Data Report for July 26, 2021
TIME
LST
Temp Definition
°C
Dew Point Definition
°C
Rel Hum Definition
%
Precip. Amount Definition
mm

Wind Dir Definition
10's deg

Wind Spd Definition
km/h
Visibility Definition
km
Stn Press Definition
kPa
Hmdx Definition


Wind Chill Definition


Weather Definition


00:00 16.1 15.2 94 0.0 18 15   100.59     LegendNANA
01:00 16.3 15.5 95 0.0 19 16   100.58     LegendNANA
02:00 16.5 15.9 96 0.0 20 15   100.56     LegendNANA
03:00 16.7 16.0 95 0.0 21 11   100.54     LegendNANA
04:00 16.9 16.1 95 0.0 22 9   100.50     LegendNANA
05:00 16.8 16.0 95 0.0 23 10   100.51     LegendNANA
06:00 17.2 16.2 94 0.0 23 10   100.52     LegendNANA
07:00 17.8 16.6 93 0.0 22 9   100.54     LegendNANA
08:00 17.9 16.6 92 0.0 21 9   100.53     LegendNANA
09:00 18.7 17.0 89 0.0 24 11   100.51     LegendNANA
10:00 19.0 17.2 89 0.0 20 12   100.52     LegendNANA
11:00 19.5 17.2 87 0.0 23 12   100.53     LegendNANA
12:00 19.9 17.2 84 0.0 21 14   100.48     LegendNANA
13:00 20.2 17.4 84 0.0 22 14   100.45 26   LegendNANA
14:00 22.8 17.6 73 0.0 24 9   100.41 29   LegendNANA
15:00 23.8 17.5 68 0.0 21 7   100.39 29   LegendNANA
16:00 24.5 17.9 67 0.0 19 15   100.34 30   LegendNANA
17:00 24.6 16.9 62 0.0 18 14   100.30 30   LegendNANA
18:00 24.0 17.3 66 0.0 19 12   100.33 29   LegendNANA
19:00 23.3 18.2 73 0.0 18 9   100.34 29   LegendNANA
20:00 21.5 18.4 83 0.0 17 9   100.35 28   LegendNANA
21:00 20.2 18.1 88 0.0 18 9   100.37 26   LegendNANA
22:00 19.5 18.0 91 0.0 22 5   100.40     LegendNANA
23:00 18.6 17.5 93 0.0 21 5   100.36     LegendNANA

Notes on Data Quality.

Legend

  • E = Estimated
  • M = Missing
  • NA = Not Available*
  • [empty] = Indicates an unobserved value
Date modified: